Location: Belfast
(54.5830°N, 5.9330°W)
Time: 13:42:45
(UTC+01:00)

ISS - Pass Details

Date: 18 May 2018
Orbit: 402 x 407 km, 51.6° (Epoch: 22 May)

Event Time Altitude Azimuth Distance (km) Brightness Sun altitude
Exits shadow 02:21:11 28° 232° (SW) 796 -2.8 -14.8°
Maximum altitude 02:22:33 48° 173° (S) 540 -3.6 -14.7°
Drops below altitude 10° 02:25:43 10° 98° (E) 1,459 -0.9 -14.6°
Sets 02:27:50 0° 93° (E) 2,319 0.2 -14.5°
